STARLINK-34546, 64718

Orbit data source: Space-Track

STARLINK-34546, 64718 is a payload satellite owned by SpaceX/Seattle (US) in LEO that was launched on Sat, 28 Jun 2025 UTC via an FALCON 9 launch vehicle from the Air Force Western Test Range (AFWTR). Payload-class satellites include a variety of spacecraft equipped with specific instruments for various scientific and technological missions. These include communications satellites like Starlink; space stations such as the ISS; scientific satellites like the Hubble; Earth observation satellites from companies like Planet Labs, Umbra, and HawkEye 360; GPS; miniature CubeSats for education and research; and military/defense satellites.

Loading next visibility...
Identifier
64718, 2025-142Y
Orbit
LEO
Country
Flag of USUS
Related business
Manufacturer
SpaceX/Seattle
Mission
Operational Commercial Communications
Bus & Motor
STARLINK V2MO, Unknown motor
Mass
575 kg wet, ~530 kg dry
Launch date (UTC)
2025-06-28 (1 year ago)
Launch vehicle
FALCON 9
Launch site
Air Force Western Test Range (AFWTR)
Object type
Payload
Rocket body
Debris
Shape & HBR
Box + 1 Pan, 17.7 m
Radar Cross Section
41.120 m², Large (>1 m²)

Expand to show TLE details & history
Last TLE update: 13 hours ago

TLE from 13 hours ago
0 STARLINK-34546
1 64718U 25142Y   26264.19302871  .00015840  00000-0  55418-3 0  9995
2 64718  70.0039 179.1956 0002204 293.9484  66.1460 15.29588890 68992
Epoch: 2026-09-21T04:37Z
TLE epoch observation values (Epoch: 2026-09-21T04:37:57.680Z)
Latitude
-0.00005°
Longitude
109.62887°
Altitude
478.887 km
Speed
7.627 km/s
True Right ascension
11h 56m 46s
True Declination
0° 00' 00"
Sunlit
Object was in daylight at epoch
Visualization orbit readout
Latitude
Unknown
Longitude
Unknown
Altitude
Unknown
Speed
Unknown
Apparent Right ascension
Unknown
Apparent Declination
Unknown
Sunlit
N/A
Visualization observer readout
Local Sidereal Time
10:58:06
Azimuth
Unknown
Elevation
Unknown
Doppler factor
Unknown
Orbital elements
Apogee altitude
476.47 km
Perigee altitude
473.449 km
Semi-major axis
6,853.097 km
Eccentricity
0.00022
Inclination
70.0039°
RAAN
179.1956°
Arg. of periapsis
293.9484°
True anomaly
66.1691°
Mean anomaly
66.146°
Eccentric anomaly
66.15755°
Mean motion
3.82572 °/min
Orbital period
94.1 mins
BSTAR
0.00055418
Loading maneuver chart data...
Computing Atmospheric mass density...
Loading historical data...
Loading historical data...
Loading historical data...
Loading historical data...
Loading historical data...
Loading historical data...
Loading historical data...

Documentation

Showing up to 5 results
|